DMSP 5D-2 F13 DEB, 40464

Orbit data source: Space-Track

DMSP 5D-2 F13 DEB, 40464 is space debris in SSO originally from a launch on Fri, 24 Mar 1995 UTC launched from the Air Force Western Test Range (AFWTR). Debris objects in space refer to the collection of defunct objects orbiting the Earth. Examples of debris include non-operational satellites, rocket bodies, and fragments generated from explosions, collisions, or faulty payload assembly.

Loading next visibility...
Identifier
40464, 1995-015BG
Orbit
SSO
Country
Flag of USUS
Related business
Manufacturer
Unknown
Mission
Spacecraft
Bus & Motor
Unknown
Mass
Unknown
Launch date (UTC)
1995-03-24 (31 years ago)
Launch vehicle
Unknown
Launch site
Air Force Western Test Range (AFWTR)
Object type
Payload
Rocket body
Debris
Shape & HBR
Unknown shape, 0.1 m
Radar Cross Section
Small (<0.1 m²)

Expand to show TLE details & history
Last TLE update: 15 hours ago

TLE from 15 hours ago
0 DMSP 5D-2 F13 DEB
1 40464U 95015BG  26121.23115042  .00003376  00000-0  18718-2 0  9994
2 40464  98.9394  48.1346 0081831  39.3486 321.3591 14.10205314569018
Epoch: 2026-05-01T05:32Z
TLE epoch observation values (Epoch: 2026-05-01T05:32:51.396Z)
Latitude
-0.00004°
Longitude
105.75408°
Altitude
815.49 km
Speed
7.469 km/s
True Right ascension
03h 12m 32s
True Declination
0° 00' 00"
Sunlit
Object was in daylight at epoch
Visualization orbit readout
Latitude
Unknown
Longitude
Unknown
Altitude
Unknown
Speed
Unknown
Apparent Right ascension
Unknown
Apparent Declination
Unknown
Sunlit
N/A
Visualization observer readout
Local Sidereal Time
03:45:53
Azimuth
Unknown
Elevation
Unknown
Doppler factor
Unknown
Orbital elements
Apogee altitude
915.048 km
Perigee altitude
796.655 km
Semi-major axis
7,233.989 km
Eccentricity
0.00818
Inclination
98.9394°
RAAN
48.1346°
Arg. of periapsis
39.3486°
True anomaly
320.76885°
Mean anomaly
321.3591°
Eccentric anomaly
321.06445°
Mean motion
3.52758 °/min
Orbital period
102.05 mins
BSTAR
0.0018718
Loading maneuver chart data...
Computing Atmospheric mass density...

Documentation

Showing up to 5 results
|